| time (UTC) | temp C | wind direction | speed KPH | gust KPH | rain 1hr cm | rain 24hr cm | rain mn cm | humidity % | barometer mb |
| 20260505124529 | 2 | 355 | 0.0 | 6.4 | 0.00 | 0.00 | 0.00 | 69 | 1018.8 |
| 20260505123028 | 2 | 31 | 1.6 | 4.8 | 0.00 | 0.00 | 0.00 | 69 | 1018.6 |
| 20260505121527 | 2 | 21 | 1.6 | 6.4 | 0.00 | 0.00 | 0.00 | 69 | 1018.5 |
| 20260505120039 | 2 | 18 | 1.6 | 6.4 | 0.00 | 0.00 | 0.00 | 69 | 1018.4 |
| 20260505114525 | 2 | 32 | 0.0 | 4.8 | 0.00 | 0.00 | 0.00 | 70 | 1018.4 |
| 20260505113024 | 2 | 44 | 1.6 | 6.4 | 0.00 | 0.00 | 0.00 | 70 | 1018.4 |
| 20260505111530 | 2 | 25 | 1.6 | 6.4 | 0.00 | 0.00 | 0.00 | 69 | 1018.3 |
| 20260505101511 | 3 | 59 | 1.6 | 12.9 | 0.00 | 0.00 | 0.00 | 62 | 1017.9 |
| 20260505100008 | 3 | 180 | 1.6 | 8.0 | 0.00 | 0.00 | 0.00 | 59 | 1017.9 |
| 20260505094506 | 4 | 49 | 1.6 | 8.0 | 0.00 | 0.00 | 0.00 | 57 | 1017.7 |
| 20260505093005 | 4 | 180 | 0.0 | 9.7 | 0.00 | 0.00 | 0.00 | 56 | 1017.6 |
| 20260505091504 | 4 | 35 | 1.6 | 4.8 | 0.00 | 0.00 | 0.00 | 55 | 1017.6 |
| 20260505090003 | 4 | 20 | 0.0 | 8.0 | 0.00 | 0.00 | 0.00 | 54 | 1017.6 |
| 20260505084502 | 5 | 180 | 0.0 | 4.8 | 0.00 | 0.00 | 0.00 | 54 | 1017.5 |
| 20260505083002 | 5 | 180 | 1.6 | 4.8 | 0.00 | 0.00 | 0.00 | 54 | 1017.5 |
| 20260505081502 | 5 | 180 | 3.2 | 8.0 | 0.00 | 0.00 | 0.00 | 55 | 1017.3 |
| 20260505080004 | 5 | 180 | 4.8 | 12.9 | 0.00 | 0.00 | 0.00 | 55 | 1017.3 |
| 20260505074600 | 5 | 180 | 4.8 | 14.5 | 0.00 | 0.00 | 0.00 | 56 | 1017.3 |
| 20260505073001 | 5 | 180 | 6.4 | 14.5 | 0.00 | 0.00 | 0.00 | 57 | 1017.2 |
| 20260505071615 | 5 | 180 | 3.2 | 20.9 | 0.00 | 0.00 | 0.00 | 57 | 1017.1 |
| 20260505064603 | 3 | 180 | 3.2 | 12.9 | 0.00 | 0.00 | 0.00 | 55 | 1017.4 |
| 20260505063055 | 3 | 343 | 0.0 | 3.2 | 0.00 | 0.00 | 0.00 | 52 | 1017.3 |
| 20260505061557 | 3 | 36 | 0.0 | 3.2 | 0.00 | 0.00 | 0.00 | 51 | 1017.1 |
| 20260505060059 | 3 | 47 | 0.0 | 1.6 | 0.00 | 0.00 | 0.00 | 50 | 1017.0 |
| 20260505054545 | 4 | 38 | 0.0 | 0.0 | 0.00 | 0.00 | 0.00 | 50 | 1016.7 |
| 20260505053044 | 4 | 38 | 0.0 | 1.6 | 0.00 | 0.00 | 0.00 | 50 | 1016.5 |
| 20260505051542 | 4 | 38 | 0.0 | 0.0 | 0.00 | 0.00 | 0.00 | 50 | 1016.4 |
| 20260505041545 | 5 | 38 | 0.0 | 1.6 | 0.00 | 0.00 | 0.00 | 46 | 1016.3 |
| 20260505040034 | 5 | 47 | 0.0 | 3.2 | 0.00 | 0.00 | 0.00 | 46 | 1016.1 |
| 20260505034529 | 6 | 42 | 0.0 | 4.8 | 0.00 | 0.00 | 0.00 | 45 | 1015.7 |
| 20260505033026 | 6 | 55 | 0.0 | 3.2 | 0.00 | 0.00 | 0.00 | 44 | 1015.3 |
| 20260505031524 | 6 | 49 | 1.6 | 4.8 | 0.00 | 0.00 | 0.00 | 43 | 1015.1 |
| 20260505030021 | 7 | 54 | 0.0 | 6.4 | 0.00 | 0.00 | 0.00 | 41 | 1015.0 |
| 20260505024518 | 7 | 52 | 0.0 | 6.4 | 0.00 | 0.00 | 0.00 | 39 | 1014.6 |
| 20260505023014 | 8 | 78 | 1.6 | 4.8 | 0.00 | 0.00 | 0.00 | 36 | 1014.4 |
| 20260505021510 | 9 | 347 | 3.2 | 17.7 | 0.00 | 0.00 | 0.00 | 32 | 1014.1 |
| 20260505020006 | 10 | 93 | 3.2 | 14.5 | 0.00 | 0.00 | 0.00 | 29 | 1013.9 |
| 20260505014503 | 11 | 40 | 4.8 | 16.1 | 0.00 | 0.00 | 0.00 | 26 | 1013.6 |
| 20260505013059 | 11 | 103 | 4.8 | 16.1 | 0.00 | 0.00 | 0.00 | 25 | 1013.5 |
| 20260505011558 | 12 | 88 | 4.8 | 19.3 | 0.00 | 0.00 | 0.00 | 23 | 1013.2 |
| 20260505010059 | 13 | 338 | 8.0 | 19.3 | 0.00 | 0.00 | 0.00 | 22 | 1013.1 |
| 20260505004552 | 13 | 326 | 8.0 | 24.1 | 0.00 | 0.00 | 0.00 | 21 | 1013.2 |
| 20260505003057 | 13 | 310 | 12.9 | 25.7 | 0.00 | 0.00 | 0.00 | 21 | 1013.0 |
| 20260505001550 | 14 | 358 | 14.5 | 29.0 | 0.00 | 0.00 | 0.00 | 21 | 1013.0 |
| 20260505000056 | 15 | 17 | 14.5 | 30.6 | 0.00 | 0.00 | 0.00 | 21 | 1013.0 |
| 20260504234548 | 15 | 6 | 8.0 | 27.4 | 0.00 | 0.00 | 0.00 | 21 | 1013.0 |
| 20260504233047 | 15 | 336 | 9.7 | 29.0 | 0.00 | 0.00 | 0.00 | 21 | 1013.0 |
| 20260504231544 | 15 | 2 | 12.9 | 25.7 | 0.00 | 0.00 | 0.00 | 21 | 1012.9 |
| 20260504230045 | 15 | 351 | 14.5 | 29.0 | 0.00 | 0.00 | 0.00 | 21 | 1012.7 |
| 20260504224543 | 15 | 360 | 14.5 | 29.0 | 0.00 | 0.00 | 0.00 | 22 | 1012.7 |
| 20260504223058 | 15 | 316 | 12.9 | 33.8 | 0.00 | 0.00 | 0.00 | 23 | 1012.7 |
| 20260504221543 | 16 | 333 | 16.1 | 30.6 | 0.00 | 0.00 | 0.00 | 24 | 1012.7 |
| 20260504220042 | 16 | 355 | 12.9 | 43.5 | 0.00 | 0.00 | 0.00 | 25 | 1012.8 |
| 20260504214540 | 15 | 37 | 16.1 | 32.2 | 0.00 | 0.00 | 0.00 | 27 | 1012.6 |
| 20260504213044 | 14 | 42 | 8.0 | 29.0 | 0.00 | 0.00 | 0.00 | 31 | 1012.9 |
| 20260504211606 | 13 | 7 | 16.1 | 29.0 | 0.00 | 0.00 | 0.00 | 30 | 1013.1 |
| 20260504210044 | 13 | 353 | 9.7 | 25.7 | 0.00 | 0.00 | 0.00 | 30 | 1013.0 |
| 20260504204538 | 13 | 336 | 16.1 | 37.0 | 0.00 | 0.00 | 0.00 | 30 | 1013.0 |
| 20260504203037 | 14 | 15 | 12.9 | 19.3 | 0.00 | 0.00 | 0.00 | 28 | 1012.8 |
| 20260504201536 | 15 | 22 | 11.3 | 25.7 | 0.00 | 0.00 | 0.00 | 27 | 1012.7 |
| 20260504200034 | 15 | 340 | 14.5 | 37.0 | 0.00 | 0.00 | 0.00 | 28 | 1012.6 |
| 20260504194533 | 16 | 8 | 14.5 | 32.2 | 0.00 | 0.00 | 0.00 | 28 | 1012.4 |
| 20260504193032 | 16 | 345 | 12.9 | 27.4 | 0.00 | 0.00 | 0.00 | 28 | 1012.4 |
| 20260504191528 | 13 | 332 | 12.9 | 22.5 | 0.00 | 0.00 | 0.00 | 31 | 1012.5 |
| 20260504190025 | 13 | 276 | 16.1 | 35.4 | 0.00 | 0.00 | 0.00 | 30 | 1012.4 |
| 20260504184531 | 13 | 347 | 11.3 | 33.8 | 0.00 | 0.00 | 0.00 | 33 | 1012.4 |
| 20260504183020 | 13 | 322 | 12.9 | 27.4 | 0.00 | 0.00 | 0.00 | 33 | 1012.4 |
| 20260504181519 | 13 | 349 | 14.5 | 32.2 | 0.00 | 0.00 | 0.00 | 32 | 1012.4 |
| 20260504180019 | 15 | 326 | 12.9 | 24.1 | 0.00 | 0.00 | 0.00 | 31 | 1012.5 |
| 20260504174519 | 13 | 341 | 12.9 | 27.4 | 0.00 | 0.00 | 0.00 | 32 | 1012.5 |
| 20260504173019 | 14 | 310 | 11.3 | 33.8 | 0.00 | 0.00 | 0.00 | 32 | 1012.5 |
| 20260504171521 | 14 | 324 | 12.9 | 20.9 | 0.00 | 0.00 | 0.00 | 32 | 1012.5 |